Change the Weather History Date:

Wednesday, February 5, 2014

  Actual Average Record
Temperature  
Mean Temperature 28 °F -  
Max Temperature 37 °F 34 °F 57 °F (2008)
Min Temperature 19 °F 15 °F -7 °F (1965)
Degree Days  
Heating Degree Days 37    
Moisture  
Dew Point 24 °F    
Average Humidity 86    
Maximum Humidity 93    
Minimum Humidity 69    
Precipitation  
Precipitation 0.60 in - - ()
Sea Level Pressure  
Sea Level Pressure 29.84 in    
Wind  
Wind Speed 11 mph (West)    
Max Wind Speed 22 mph    
Max Gust Speed 32 mph    
Visibility 7 miles    
Events      
Averages and records for this station are not official NWS values.
T = Trace of Precipitation, MM = Missing Value Source: NWS Daily Summary

Daily Weather History Graph

Daily Weather History Graph

Search for Another Location

Airport or City:

Trip Planner

Search our weather history database for the weather conditions in past years. The results will help you decide how hot, cold, wet, or windy it might be!

Date:

Astronomy

Feb. 05, 2014 Rise Set
Actual Time 7:22 AM EST 5:39 PM EST
Civil Twilight 6:53 AM EST 6:07 PM EST
Nautical Twilight 6:21 AM EST 6:40 PM EST
Astronomical Twilight 5:49 AM EST 7:12 PM EST
Moon 10:33 AM EST (2/5) No Moon Set
Length of Visible Light 11h 14m
Length of Day
10h 17m
Waxing Crescent, 39% of the Moon is Illuminated
Feb 5
Waxing Crescent
Feb 6
First Quarter
Feb 14
Full
Feb 22
Last Quarter
Mar 1
New

Hourly Weather History & Observations

Time (EST) Temp. Windchill Dew Point Humidity Pressure Visibility Wind Dir Wind Speed Gust Speed Precip Events Conditions
12:15 AM 23.0 °F 13.9 °F 21.2 °F 93% 30.03 in 1.5 mi ESE 8.1 mph - N/A   Overcast
12:35 AM 24.8 °F 15.3 °F 21.2 °F 86% 30.02 in 2.5 mi East 9.2 mph - 0.04 in   Overcast
12:55 AM 23.0 °F 11.7 °F 21.2 °F 93% 30.00 in 2.0 mi East 11.5 mph - 0.06 in   Overcast
1:15 AM 23.0 °F 11.7 °F 21.2 °F 93% 29.98 in 3.0 mi East 11.5 mph - 0.03 in   Overcast
1:35 AM 24.8 °F 14.6 °F 21.2 °F 86% 29.96 in 4.0 mi East 10.4 mph - 0.06 in   Overcast
1:55 AM 24.8 °F 15.3 °F 21.2 °F 86% 29.95 in 4.0 mi East 9.2 mph - 0.08 in   Overcast
2:15 AM 24.8 °F 15.3 °F 21.2 °F 86% 29.94 in 3.0 mi East 9.2 mph - 0.04 in   Overcast
2:35 AM 24.8 °F 14.6 °F 21.2 °F 86% 29.92 in 4.0 mi East 10.4 mph - 0.06 in   Overcast
2:55 AM 26.6 °F 16.8 °F 23.0 °F 86% 29.92 in 5.0 mi East 10.4 mph - 0.08 in   Overcast
3:15 AM 26.6 °F 16.8 °F 24.8 °F 93% 29.90 in 5.0 mi East 10.4 mph - 0.03 in   Overcast
3:35 AM 26.6 °F 18.2 °F 24.8 °F 93% 29.89 in 5.0 mi East 8.1 mph - 0.05 in   Overcast
3:55 AM 26.6 °F 17.5 °F 24.8 °F 93% 29.88 in 5.0 mi East 9.2 mph - 0.08 in   Overcast
4:15 AM 28.4 °F 19.7 °F 26.6 °F 93% 29.86 in 5.0 mi East 9.2 mph - 0.03 in   Overcast
4:35 AM 28.4 °F 19.7 °F 26.6 °F 93% 29.84 in 4.0 mi ESE 9.2 mph - 0.07 in   Overcast
4:55 AM 30.2 °F 21.3 °F 26.6 °F 86% 29.82 in 5.0 mi ESE 10.4 mph - 0.10 in   Overcast
5:15 AM 30.2 °F 21.9 °F 28.4 °F 93% 29.78 in 7.0 mi ESE 9.2 mph - 0.02 in   Overcast
5:35 AM 30.2 °F 21.3 °F 28.4 °F 93% 29.75 in 10.0 mi ESE 10.4 mph - 0.04 in   Overcast
5:55 AM 32.0 °F 24.8 °F 28.4 °F 87% 29.74 in 10.0 mi ESE 8.1 mph - 0.05 in   Mostly Cloudy
6:15 AM 32.0 °F 24.2 °F 30.2 °F 93% 29.71 in 10.0 mi ESE 9.2 mph - 0.01 in   Mostly Cloudy
6:35 AM 32.0 °F 26.4 °F 30.2 °F 93% 29.71 in 10.0 mi ESE 5.8 mph - 0.03 in   Overcast
6:55 AM 32.0 °F 25.6 °F 30.2 °F 93% 29.69 in 10.0 mi East 6.9 mph - 0.04 in   Overcast
7:15 AM 33.8 °F 25.8 °F 30.2 °F 87% 29.66 in 10.0 mi ESE 10.4 mph - 0.01 in   Overcast
7:35 AM 33.8 °F 29.6 °F 30.2 °F 87% 29.66 in 10.0 mi East 4.6 mph - 0.02 in   Overcast
7:55 AM 33.8 °F 27.7 °F 30.2 °F 87% 29.65 in 10.0 mi ESE 6.9 mph - 0.02 in   Overcast
8:15 AM 33.8 °F 28.6 °F 30.2 °F 87% 29.64 in 10.0 mi ESE 5.8 mph - 0.01 in   Overcast
8:35 AM 33.8 °F 25.8 °F 30.2 °F 87% 29.62 in 10.0 mi SE 10.4 mph 16.1 mph 0.01 in   Overcast
8:55 AM 33.8 °F 26.4 °F 30.2 °F 87% 29.59 in 7.0 mi SE 9.2 mph - 0.01 in   Overcast
9:15 AM 33.8 °F 27.0 °F 30.2 °F 87% 29.59 in 1.8 mi SE 8.1 mph - 0.01 in   Overcast
9:35 AM 33.8 °F 24.3 °F 30.2 °F 87% 29.60 in 2.0 mi SSE 13.8 mph 19.6 mph 0.03 in   Overcast
9:55 AM 33.8 °F 27.0 °F 30.2 °F 87% 29.60 in 1.5 mi South 8.1 mph 18.4 mph 0.06 in   Overcast
10:15 AM 33.8 °F 27.7 °F 32.0 °F 93% 29.60 in 1.5 mi South 6.9 mph - 0.01 in   Overcast
10:35 AM 35.6 °F 31.7 °F 33.8 °F 93% 29.62 in 7.0 mi SSW 4.6 mph - 0.02 in   Overcast
10:55 AM 37.4 °F 27.5 °F 35.6 °F 93% 29.63 in 10.0 mi WSW 18.4 mph 26.5 mph 0.02 in   Overcast
11:15 AM 37.4 °F 27.8 °F 35.6 °F 93% 29.64 in 10.0 mi West 17.3 mph 26.5 mph N/A   Overcast
11:35 AM 37.4 °F 28.5 °F 35.6 °F 93% 29.65 in 5.0 mi West 15.0 mph 21.9 mph N/A   Overcast
11:55 AM 35.6 °F 24.2 °F 33.8 °F 93% 29.65 in 10.0 mi West 21.9 mph 31.1 mph N/A   Overcast
12:15 PM 35.6 °F 24.8 °F 32.0 °F 87% 29.65 in 10.0 mi West 19.6 mph 25.3 mph N/A   Overcast
12:35 PM 35.6 °F 24.5 °F 32.0 °F 87% 29.66 in 10.0 mi West 20.7 mph 31.1 mph N/A   Overcast
12:55 PM 35.6 °F 24.5 °F 30.2 °F 81% 29.66 in 10.0 mi West 20.7 mph 26.5 mph N/A   Overcast
1:15 PM 33.8 °F 22.5 °F 30.2 °F 87% 29.67 in 10.0 mi West 19.6 mph 29.9 mph N/A   Overcast
1:35 PM 33.8 °F 22.2 °F 30.2 °F 87% 29.67 in 10.0 mi West 20.7 mph 31.1 mph N/A   Overcast
1:55 PM 33.8 °F 23.2 °F 30.2 °F 87% 29.68 in 10.0 mi West 17.3 mph 29.9 mph N/A   Overcast
2:15 PM 33.8 °F 23.9 °F 30.2 °F 87% 29.69 in 4.0 mi West 15.0 mph 26.5 mph N/A   Overcast
2:35 PM 32.0 °F 20.1 °F 28.4 °F 87% 29.70 in 4.0 mi West 19.6 mph 29.9 mph N/A   Overcast
2:55 PM 32.0 °F 20.1 °F 28.4 °F 87% 29.71 in 7.0 mi West 19.6 mph 32.2 mph N/A   Overcast
3:15 PM 30.2 °F 18.5 °F 26.6 °F 86% 29.73 in 10.0 mi West 17.3 mph 27.6 mph N/A   Overcast
3:35 PM 30.2 °F 18.9 °F 26.6 °F 86% 29.75 in 4.0 mi West 16.1 mph 26.5 mph N/A   Overcast
3:55 PM 30.2 °F 18.9 °F 24.8 °F 80% 29.77 in 3.0 mi WNW 16.1 mph 24.2 mph N/A   Overcast
4:15 PM 28.4 °F 17.5 °F 24.8 °F 86% 29.80 in 2.0 mi West 13.8 mph 25.3 mph N/A   Overcast
4:35 PM 26.6 °F 16.2 °F 23.0 °F 86% 29.82 in 1.8 mi WNW 11.5 mph 29.9 mph N/A   Overcast
4:55 PM 26.6 °F 13.4 °F 21.2 °F 80% 29.85 in 2.5 mi WNW 18.4 mph 31.1 mph N/A   Overcast
5:15 PM 24.8 °F 12.9 °F 19.4 °F 80% 29.88 in 4.0 mi WNW 13.8 mph 24.2 mph N/A   Overcast
5:35 PM 24.8 °F 10.7 °F 19.4 °F 80% 29.90 in 3.0 mi WNW 19.6 mph 27.6 mph N/A   Overcast
5:55 PM 24.8 °F 14.6 °F 19.4 °F 80% 29.93 in 5.0 mi WNW 10.4 mph 18.4 mph N/A   Overcast
6:15 PM 24.8 °F 12.9 °F 17.6 °F 74% 29.95 in 7.0 mi NW 13.8 mph 23.0 mph N/A   Overcast
6:35 PM 24.8 °F 10.7 °F 15.8 °F 69% 29.97 in 10.0 mi WNW 19.6 mph 26.5 mph N/A   Overcast
6:55 PM 24.8 °F 14.6 °F 15.8 °F 69% 29.99 in 10.0 mi NW 10.4 mph 23.0 mph N/A   Overcast
7:15 PM 24.8 °F 14.6 °F 15.8 °F 69% 30.01 in 10.0 mi NW 10.4 mph 21.9 mph N/A   Overcast
7:35 PM 23.0 °F 12.4 °F 17.6 °F 80% 30.02 in 10.0 mi NW 10.4 mph 18.4 mph N/A   Overcast
7:55 PM 21.2 °F 10.1 °F 15.8 °F 80% 30.03 in 10.0 mi WNW 10.4 mph 25.3 mph N/A   Overcast
8:15 PM 21.2 °F 8.9 °F 15.8 °F 80% 30.05 in 10.0 mi WNW 12.7 mph 20.7 mph N/A   Overcast
8:35 PM 21.2 °F 9.5 °F 15.8 °F 80% 30.06 in 10.0 mi WNW 11.5 mph - N/A   Overcast
8:55 PM 21.2 °F 11.7 °F 15.8 °F 80% 30.07 in 10.0 mi NW 8.1 mph 17.3 mph N/A   Overcast
9:15 PM 21.2 °F 8.9 °F 15.8 °F 80% 30.09 in 10.0 mi NW 12.7 mph 18.4 mph N/A   Overcast
9:35 PM 21.2 °F 9.5 °F 15.8 °F 80% 30.11 in 10.0 mi NW 11.5 mph 17.3 mph N/A   Overcast
9:55 PM 19.4 °F 7.9 °F 15.8 °F 86% 30.12 in 10.0 mi WNW 10.4 mph - N/A   Overcast
10:15 PM 19.4 °F 10.4 °F 14.0 °F 80% 30.13 in 10.0 mi NW 6.9 mph - N/A   Overcast
10:35 PM 19.4 °F 7.2 °F 14.0 °F 80% 30.15 in 10.0 mi NW 11.5 mph - N/A   Overcast
10:55 PM 19.4 °F 7.9 °F 14.0 °F 80% 30.16 in 10.0 mi NW 10.4 mph - N/A   Overcast
11:15 PM 19.4 °F 10.4 °F 14.0 °F 80% 30.16 in 10.0 mi NW 6.9 mph - N/A   Overcast
11:35 PM 19.4 °F 12.8 °F 15.8 °F 86% 30.17 in 7.0 mi NNW 4.6 mph - N/A   Overcast
11:55 PM 19.4 °F 11.5 °F 15.8 °F 86% 30.18 in 10.0 mi WNW 5.8 mph - N/A   Overcast